Flag for Kazakhstan Weather past 2 weeks in Aqtobe, Kazakhstan

Now
18 °F

Passing clouds.


Feels Like: 6 °F
Forecast: 13 / 24 °F
Wind: 10 mph from Northwest

Location: Aktjubinsk

Current Time: Oct 26, 2014 at 5:42:16 AM

Latest Report: Oct 26, 2014 at 5:00 AM


Visibility: N/A

Pressure: 30.18 "Hg

Humidity: 93%

Dew point: 16 °F

Location of AqtobeLocation

Historic Weather in Aqtobe — Graph

°F

Aqtobe temperature yesterday

Maximum temperature yesterday: 21 °F (at 2:00 PM)
Minimum temperature yesterday: 14 °F (at 5:00 AM)
Average temperature yesterday: 17 °F

Past Weeks' High & Low Weather Summary

 TemperatureHumidityPressure
High70 °F (Oct 16, 3:00 PM)100% (Oct 18, 10:00 PM)30.30 "Hg (Oct 18, 10:00 PM)
Low14 °F (Oct 25, 5:00 AM)22% (Oct 14, 12:30 PM)29.50 "Hg (Oct 18, 2:00 PM)
Average42 °F70%29.93 "Hg
* Reported Oct 11 4:00 AM — Oct 26 4:30 AM, Aqtobe, Weather by CustomWeather, © 2014

Note: Actual official high and low records may vary slightly from our data, if they occured in-between our weather recording intervals... More about our weather records

Advertising

Aqtobe weather history for previous 24 hours

 ConditionsComfort  
Time TempWeatherWind HumidityBarometerVisibility
4:30 AM
Oct 26
18 °FOvercast.10 mph86%30.18 "HgN/A
4:00 AM16 °FOvercast.8 mph93%30.18 "HgN/A
3:30 AM16 °FLight snow. Overcast.10 mph93%30.18 "HgN/A
3:00 AM16 °FLight snow. Passing clouds.13 mph93%30.18 "Hg6 mi
2:30 AM16 °FLight snow. Passing clouds.13 mph93%30.18 "HgN/A
2:00 AM18 °FLight snow. Overcast.10 mph86%30.18 "HgN/A
1:30 AM16 °FLight snow. Overcast.13 mph93%30.18 "HgN/A
1:00 AM18 °FLight snow. Passing clouds.10 mph86%30.18 "HgN/A
12:30 AM16 °FPassing clouds.13 mph93%30.15 "HgN/A
12:00 AM16 °FPassing clouds.10 mph86%30.15 "HgN/A
11:30 PM
Oct 25
16 °FPassing clouds.10 mph79%30.15 "HgN/A
11:00 PM16 °FPassing clouds.10 mph79%30.15 "HgN/A
10:30 PM16 °FClear.13 mph79%30.15 "Hg10 mi
10:00 PM16 °FPassing clouds.10 mph86%30.15 "HgN/A
9:30 PM18 °FPartly cloudy.10 mph79%30.15 "HgN/A
9:00 PM18 °FSnow flurries. Mostly cloudy.13 mph73%30.15 "HgN/A
8:30 PM18 °FSnow flurries. Passing clouds.13 mph79%30.15 "HgN/A
8:00 PM18 °FSnow flurries. Passing clouds.13 mph79%30.15 "HgN/A
7:30 PM18 °FSnow flurries. Passing clouds.13 mph79%30.15 "HgN/A
7:00 PM18 °FSnow flurries. Passing clouds.10 mph73%30.15 "HgN/A
6:30 PM18 °FSnow flurries. Passing clouds.13 mph79%30.15 "Hg3 mi
6:00 PM18 °FSnow flurries. Partly sunny.13 mph73%30.12 "HgN/A
5:30 PM18 °FSnow flurries. Partly sunny.13 mph73%30.12 "Hg4 mi
5:00 PM18 °FSnow flurries. Partly sunny.15 mph73%30.12 "HgN/A
4:30 PM19 °FSnow flurries. Mostly cloudy.13 mph68%30.12 "HgN/A
4:00 PM19 °FSnow flurries. Mostly cloudy.15 mph73%30.12 "Hg5 mi
3:30 PM19 °FSnow showers. Mostly cloudy.10 mph73%30.12 "Hg2 mi
3:00 PM19 °FSnow flurries. Partly sunny.13 mph79%30.12 "Hg3 mi
2:30 PM19 °FSnow flurries. Partly sunny.10 mph73%30.12 "Hg5 mi
2:00 PM21 °FSnow flurries. Partly sunny.13 mph63%30.12 "HgN/A
1:30 PM19 °FSnow flurries. Partly sunny.13 mph68%30.12 "HgN/A
1:00 PM19 °FSnow flurries. More clouds than sun.10 mph68%30.12 "HgN/A
12:30 PM19 °FSnow flurries. More clouds than sun.13 mph68%30.12 "Hg6 mi
12:00 PM19 °FSnow flurries. More clouds than sun.10 mph73%30.12 "Hg4 mi
11:30 AM19 °FSnow flurries. More clouds than sun.10 mph73%30.12 "Hg6 mi
11:00 AM19 °FSnow flurries. More clouds than sun.10 mph73%30.12 "Hg6 mi
10:30 AM19 °FSnow flurries. Overcast.13 mph73%30.12 "Hg3 mi
10:00 AM19 °FLight snow. Overcast.17 mph73%30.12 "HgN/A
9:30 AM19 °FLight snow. Partly sunny.15 mph73%30.12 "HgN/A
9:00 AM19 °FLight snow. Partly sunny.13 mph79%30.09 "HgN/A
8:30 AM18 °FLight snow. Partly sunny.8 mph86%30.09 "HgN/A
8:00 AM18 °FPartly sunny.8 mph86%30.09 "HgN/A
7:30 AM16 °FPassing clouds.6 mph86%30.09 "HgN/A
7:00 AM16 °FPassing clouds.3 mph86%30.09 "HgN/A
6:30 AM14 °FClear.3 mph92%30.12 "Hg10 mi
6:00 AM14 °FClear.6 mph92%30.12 "Hg10 mi
5:30 AM14 °FClear.3 mph92%30.09 "Hg10 mi
5:00 AM14 °FClear.3 mph92%30.09 "Hg10 mi
Weather by CustomWeather, © 2014

See weather overviewHow to use our weather pages